Regional Weather Roundup
Issued by NWS

Home | Current Version | Previous Version | Text Only | Print | Product List | Glossary Off
Versions: 1 2 3 4 5 6 7 8 9 10 11 12 13 14 15 16 17 18 19 20 21 22 23 24 25 26 27 28 29 30 31 32 33 34 35 36 37 38 39 40 41 42 43 44 45 46 47 48 49 50

000
ASUS43 KFSD 241202
RWRSD

WEATHER ROUNDUP FOR SOUTH DAKOTA
NATIONAL WEATHER SERVICE SIOUX FALLS SD
700 AM CDT THU JUL 24 2014

NOTE: "FAIR" INDICATES FEW OR NO CLOUDS BELOW 12,000 FEET WITH NO
SIGNIFICANT WEATHER AND/OR OBSTRUCTIONS TO VISIBILITY.


SDZ001>005-009-010-012>017-241300-
NORTHWEST AND NORTH CENTRAL SOUTH DAKOTA

CITY           SKY/WX    TMP DP  RH WIND       PRES   REMARKS
BUFFALO          N/A     69  59  70 S7        29.78R
FAITH            N/A     66  59  78 SE28G33   29.81F
MOBRIDGE       MOCLDY    68  59  73 SE22G30   29.92F
$$

SDZ012>016-024>037-041>051-057-063-072>074-241300-
SOUTHWEST AND SOUTH CENTRAL SOUTH DAKOTA

CITY           SKY/WX    TMP DP  RH WIND       PRES   REMARKS
RAPID CTY ARPT PTCLDY    67  64  90 E9        29.88F
PIERRE         PTCLDY    68  59  73 E10       29.94R
CUSTER         PTCLDY    66  56  70 W7        30.06F
ELLSWORTH AFB  PTCLDY    68  65  90 SE14      29.88S
PHILIP         CLOUDY    71  61  70 E6        29.86F
PINE RIDGE     MOCLDY    71  65  81 S16G25    29.92S
WINNER         FAIR      69  58  67 SE16G23   29.95F
$$

SDZ004>011-016>023-039-040-241300-
NORTHEAST SOUTH DAKOTA

CITY           SKY/WX    TMP DP  RH WIND       PRES   REMARKS
ABERDEEN       PTCLDY    63  55  75 SE13      30.04F
WATERTOWN      MOCLDY    62  52  69 SE8       30.12R
SISSETON         N/A     58  57  97 S3        30.09F
$$

SDZ017-020-022-023-036>040-048>070-241300-
SOUTHEAST SOUTH DAKOTA

CITY           SKY/WX    TMP DP  RH WIND       PRES   REMARKS
SIOUX FALLS    CLOUDY    66  58  75 SE8       30.12R
HURON          LGT RAIN  62  58  86 SE10      30.03F
CHAMBERLAIN    CLEAR     65  59  82 E12       30.00S
MITCHELL       TSTM      64  61  90 N5        30.14R
YANKTON        MOCLDY   N/A N/A N/A MISG        N/A
$$

ABBREVIATIONS USED IN REMARKS
   TC - TEMPERATURE IN CELSIUS
  WCI - WIND CHILL INDEX
   HX - HEAT INDEX
  VSB - VISIBILITY



USA.gov is the U.S. government's official web portal to all federal, state and local government web resources and services.